DW7831 Weather Reports


Display with metric or nautical units.
time (UTC)temp
F
wind
direction
speed
MPH
gust
MPH
rain 1hr
in
rain 24hr
in
rain mn
in
humidity
%
barometer
mb
20260903213007 77 310 1.0 0.0 0.00 0.00 0.06 48 1012.8
20260903211504 78 265 2.0 0.0 0.00 0.00 0.06 50 1012.7
20260903210114 78 255 2.0 0.0 0.00 0.00 0.06 48 1012.9
20260903204557 78 226 2.0 0.0 0.00 0.00 0.06 45 1012.8
20260903203052 78 294 1.0 0.0 0.00 0.00 0.06 43 1012.5
20260903201549 78 234 3.0 0.0 0.00 0.00 0.06 44 1012.7
20260903200045 78 231 5.0 0.0 0.00 0.00 0.06 42 1012.7
20260903194544 77 246 2.0 0.0 0.00 0.00 0.06 41 1012.9
20260903193040 77 236 3.0 0.0 0.00 0.00 0.06 37 1013.1
20260903191548 76 254 3.0 0.0 0.00 0.00 0.06 35 1013.2
20260903190034 76 277 2.0 0.0 0.00 0.00 0.06 32 1013.4
20260903184540 75 273 1.0 0.0 0.00 0.00 0.06 32 1013.5
20260903183022 75 267 3.0 0.0 0.00 0.00 0.06 30 1013.6
20260903181518 74 228 5.0 0.0 0.00 0.00 0.06 26 1013.8
20260903180015 74 257 2.0 0.0 0.00 0.00 0.06 24 1013.8
20260903174514 74 240 6.0 0.0 0.00 0.00 0.06 29 1013.8
20260903173017 74 239 1.0 0.0 0.00 0.00 0.06 24 1013.8
20260903171505 74 190 4.0 0.0 0.00 0.00 0.06 27 1013.9
20260903170007 74 299 5.0 0.0 0.00 0.00 0.06 20 1014.3
20260903164604 73 242 3.0 0.0 0.00 0.00 0.06 11 1014.5
20260903163051 72 310 3.0 0.0 0.00 0.00 0.06 100 1014.6
20260903161552 70 181 3.0 0.0 0.00 0.00 0.06 100 1014.6
20260903160043 70 200 3.0 0.0 0.00 0.00 0.06 100 1014.9
20260903154541 69 235 4.0 0.0 0.00 0.00 0.06 100 1014.9
20260903153038 69 239 3.0 0.0 0.00 0.00 0.06 100 1015.0
20260903151532 69 227 3.0 0.0 0.00 0.00 0.06 100 1015.1
20260903150033 69 240 2.0 0.0 0.00 0.00 0.06 100 1014.8
20260903144527 69 226 2.0 0.0 0.00 0.00 0.06 100 1014.6
20260903143043 69 198 1.0 0.0 0.00 0.00 0.06 100 1014.7
20260903141517 68 196 1.0 0.0 0.00 0.00 0.06 100 1014.5
20260903140018 68 200 2.0 0.0 0.00 0.00 0.06 100 1014.6
20260903134510 68 198 1.0 0.0 0.00 0.00 0.06 100 1014.6
20260903133005 68 200 3.0 0.0 0.00 0.00 0.06 100 1014.5
20260903131501 68 205 2.0 0.0 0.00 0.00 0.06 100 1014.5
20260903130117 67 204 1.0 0.0 0.00 0.00 0.06 100 1014.5
20260903124553 67 204 2.0 0.0 0.00 0.00 0.06 100 1014.5
20260903123049 67 208 3.0 0.0 0.00 0.00 0.06 100 1014.6
20260903121544 66 207 2.0 0.0 0.00 0.00 0.06 100 1014.7
20260903120041 66 222 0.0 0.0 0.00 0.00 0.06 100 1014.7
20260903114538 66 223 1.0 0.0 0.00 0.00 0.06 100 1014.6
20260903113041 0 0.0 0.0 0.00 0.00 0.06 1014.5
20260903111530 0 0.0 0.0 0.00 0.00 0.06 1014.6
20260903110028 0 0.0 0.0 0.00 0.00 0.06 1014.7
20260903104522 0 0.0 0.0 0.00 0.00 0.06 1014.5
20260903103017 65 209 2.0 0.0 0.00 0.00 0.06 100 1014.6
20260903101513 65 209 2.0 0.0 0.00 0.00 0.06 100 1014.8
20260903100011 65 209 2.0 0.0 0.00 0.00 0.06 100 1014.7
20260903094505 65 211 1.0 0.0 0.00 0.00 0.06 100 1014.7
20260903093001 65 219 0.0 0.0 0.00 0.00 0.06 100 1014.3
20260903091557 65 219 0.0 0.0 0.00 0.00 0.06 100 1014.2
20260903090053 65 219 0.0 0.0 0.00 0.00 0.06 100 1014.3
20260903084549 65 219 1.0 0.0 0.00 0.00 0.06 100 1014.6
20260903083051 65 219 0.0 0.0 0.00 0.00 0.06 100 1014.6
20260903081546 65 219 1.0 0.0 0.00 0.00 0.06 100 1014.7
20260903080039 65 217 0.0 0.0 0.00 0.00 0.06 100 1014.6
20260903074534 65 213 0.0 0.0 0.00 0.00 0.06 100 1014.4
20260903073032 65 213 0.0 0.0 0.00 0.00 0.06 100 1014.4
20260903071527 65 209 3.0 0.0 0.00 0.00 0.06 100 1014.3
20260903070021 65 217 5.0 0.0 0.00 0.00 0.06 100 1014.3
20260903064527 64 215 6.0 0.0 0.00 0.00 0.06 100 1014.3
20260903063015 64 202 5.0 0.0 0.00 0.00 0.06 100 1014.3
20260903061517 64 212 4.0 0.0 0.00 0.00 0.06 100 1014.3
20260903060014 64 247 4.0 0.0 0.00 0.00 0.06 100 1014.2
20260903054505 64 201 4.0 0.0 0.00 0.00 0.06 100 1014.3
20260903053101 63 233 4.0 0.0 0.00 0.00 0.06 100 1014.6
20260903051603 63 194 5.0 0.0 0.00 0.00 0.06 100 1015.1
20260903050052 64 191 5.0 0.0 0.00 0.00 0.05 100 1016.0
20260903044547 64 219 3.0 0.0 0.00 0.00 0.02 100 1016.0
20260903043045 64 171 5.0 0.0 0.00 0.00 0.01 100 1015.1
20260903041543 64 201 5.0 0.0 0.00 0.00 0.01 100 1015.3
20260903040035 63 193 5.0 0.0 0.00 0.00 0.00 100 1014.7
20260903034540 64 192 4.0 0.0 0.00 0.00 0.42 100 1016.0
20260903033027 64 195 3.0 0.0 0.00 0.00 0.38 100 1017.0
20260903031522 64 203 4.0 0.0 0.00 0.00 0.31 100 1016.8
20260903030019 64 200 5.0 0.0 0.00 0.00 0.26 100 1017.1
20260903024516 64 212 3.0 0.0 0.00 0.00 0.22 100 1016.8
20260903023011 65 183 4.0 0.0 0.00 0.00 0.20 100 1016.5
20260903021509 65 173 5.0 0.0 0.00 0.00 0.20 100 1017.0
20260903020005 65 178 6.0 0.0 0.00 0.00 0.20 100 1017.0
20260903014503 65 190 4.0 0.0 0.00 0.00 0.20 100 1017.1
20260903013100 65 140 3.0 0.0 0.00 0.00 0.20 100 1017.5
20260903011603 65 202 4.0 0.0 0.00 0.00 0.20 100 1017.7
20260903010051 65 195 3.0 0.0 0.00 0.00 0.20 100 1017.4
20260903004544 65 200 3.0 0.0 0.00 0.00 0.20 100 1017.5
20260903003039 65 184 5.0 0.0 0.00 0.00 0.20 100 1017.6
20260903001535 65 158 6.0 0.0 0.00 0.00 0.20 100 1017.2
20260903000031 65 188 7.0 0.0 0.00 0.00 0.20 100 1017.0
20260902234529 65 186 9.0 0.0 0.00 0.00 0.20 100 1016.2
20260902233025 66 137 5.0 0.0 0.00 0.00 0.20 100 1016.2
20260902231520 67 131 3.0 0.0 0.00 0.00 0.20 100 1017.0
20260902230015 67 188 2.0 0.0 0.00 0.00 0.20 100 1017.2
20260902224515 68 186 1.0 0.0 0.00 0.00 0.20 100 1017.2
20260902223010 68 182 3.0 0.0 0.00 0.00 0.20 100 1017.3
20260902221507 68 172 2.0 0.0 0.00 0.00 0.20 100 1017.7
20260902220001 69 169 3.0 0.0 0.00 0.00 0.20 100 1017.6
20260902214600 69 176 1.0 0.0 0.00 0.00 0.20 100 1017.6